Location: Bougoudala
(13.2282°N, 4.9477°W)
Time: 15:09:58
(UTC+00:00)

Daily predictions for brighter satellites

Satellite Brightness Start Highest point End
(mag) Time Altitude Azimuth Time Altitude Azimuth Time Altitude Azimuth
Centaur D-1A AC-31 3.2 17:17:04 10° NW 17:21:57 67° NNE 17:53:17 10° ESE
Centaur D-1A AC-31 3.2 17:17:04 10° NW 17:21:57 67° NNE 17:53:16 10° ESE
NOSS 3-2 (A) 4.4 18:32:21 10° SW 18:37:28 42° WNW 18:42:52 10° N
Cosmos 1371 Rocket 4.4 18:36:33 10° SSW 18:41:41 70° WNW 18:46:50 10° N
Cosmos 1420 Rocket 4.5 18:42:44 10° S 18:47:31 39° E 18:52:20 10° NNE
Cosmos 1437 2.5 18:44:32 10° S 18:47:33 83° E 18:50:34 10° N
FengYun 1-2 T 4.2 18:46:52 10° SSE 18:52:29 82° ENE 18:58:07 10° N
Okean-O 3.4 18:52:22 10° S 18:56:42 58° WSW 19:01:03 10° NNW
CSL-04 Rocket 4.0 18:53:54 10° SE 18:59:02 43° ENE 19:04:13 10° N
CZ-4 R/B 1.3 18:56:28 10° SSE 19:00:26 72° ENE 19:04:31 10° N
YAOGAN 1 2.7 18:56:57 10° SSE 19:01:07 51° ENE 19:05:18 10° N
Ariane Rocket 4.4 18:58:22 10° ESE 19:01:18 16° ENE 19:04:14 10° NE
SL-4 R/B 2.9 19:03:16 10° SW 19:08:02 58° NW 19:12:41 10° NNE
Cosmos 1844 4.4 19:07:20 10° SSE 19:12:23 32° ESE 19:15:51 17° NE
ADEOS Rocket 3.6 19:07:21 10° N 19:14:50 86° WNW 19:22:38 10° SSW
Kiku-3 4.3 19:11:09 10° WNW 19:16:03 84° SSW 19:17:31 23° ESE
Cosmos 371 Rocket 4.4 19:15:46 10° SSE 19:19:31 22° E 19:19:55 22° E
Cosmos 1766 Rocket 3.7 19:22:11 10° SSE 19:26:29 49° E 19:29:20 19° NNE
CZ-2D R/B 3.1 19:23:02 10° S 19:26:50 89° WSW 19:30:40 10° NNW
ASC 2 Rocket 3.6 19:24:05 10° W 19:29:08 51° NNW 19:30:57 30° NE
ATLAS CENTAUR R/B 0.9 19:26:09 10° NNW 19:29:45 83° WSW 19:33:15 10° SSE
H-2A ROCKET BODY 3.0 19:29:55 10° NW 19:32:59 16° N 19:33:13 16° N
Cosmos 1408 Rocket 4.2 19:33:38 10° SSE 19:37:09 36° ESE 19:37:09 36° ESE
GPS 2-17 Rocket1 3.4 19:34:33 10° WSW 19:39:02 54° SSE 19:40:17 41° ESE
SWIFT 2.2 19:37:01 10° WNW 19:41:12 74° NNE 19:41:53 59° ENE
FUSE 4.4 19:36:25 10° NW 19:41:30 43° NNE 19:42:31 38° NE
Meteor 2-2 Rocket 4.5 19:37:04 10° N 19:43:01 77° W 19:48:52 10° S
Cosmos 1939 Rocket 4.3 19:45:41 10° SSW 19:49:17 38° W 19:52:57 10° NNW
SYLDA PLATFORM 4.3 19:45:31 10° WSW 19:50:01 39° S 19:50:44 34° SSE
BREEZE-M DEB (TANK) 3.4 19:44:58 10° NW 19:50:55 54° WSW 19:51:55 35° S
Cosmos 1153 Rocket 4.5 19:46:35 10° S 19:52:53 64° E 19:56:31 26° NNE
Cosmos 1869 3.9 19:50:08 10° NNW 19:53:57 54° W 19:57:46 10° S
CZ-2C R/B 3.7 19:56:37 42° N 19:58:06 78° WNW 20:02:39 10° SSW
Cosmos 1844 Rocket 3.2 19:55:00 10° SSW 20:00:25 55° WNW 20:04:11 20° N
Orbus 21S 3.2 19:57:57 10° SW 19:59:40 38° S 19:59:40 38° S
ATLAS 3B R/B 4.0 19:54:24 10° SW 20:00:33 36° WNW 20:06:35 10° N
Cosmos 1110 Rocket 4.4 19:59:48 10° S 20:03:38 46° SSE 20:03:38 46° SSE
Cosmos 1603 3.6 20:02:39 10° NNW 20:08:15 81° WSW 20:13:49 10° SSE
Cosmos 1825 4.1 20:16:50 10° SSW 20:19:17 29° WSW 20:19:17 29° WSW
Centaur Rocket 3.9 20:17:36 10° WSW 20:20:51 60° S 20:20:51 60° S
Cosmos 1943 4.1 20:29:57 10° NNW 20:42:35 - S 20:33:50 42° NW
Atlas Centaur 2 4.4 20:32:18 10° NW 20:32:34 11° NW 20:32:34 11° NW
USA 234 4.1 20:42:00 40° NNW 20:42:00 40° NNW 20:45:53 10° NNW
Ariane H10+ 4.4 20:53:38 10° SW 20:54:12 15° SW 20:54:12 15° SW
